| time (UTC) | temp F | wind direction | speed MPH | gust MPH | rain 1hr in | rain 24hr in | rain mn in | humidity % | barometer mb |
| 20260906203551 | 83 | 0 | 0.0 | 0.0 | 0.00 | 0.00 | 0.00 | 57 | 1014.7 |
| 20260906203103 | 83 | 0 | 0.0 | 0.0 | 0.00 | 0.00 | 0.00 | 57 | 1014.8 |
| 20260906202550 | 83 | 0 | 0.0 | 0.0 | 0.00 | 0.00 | 0.00 | 56 | 1014.9 |
| 20260906202051 | 83 | 0 | 0.0 | 0.0 | 0.00 | 0.00 | 0.00 | 57 | 1015.0 |
| 20260906201606 | 83 | 0 | 0.0 | 0.0 | 0.00 | 0.00 | 0.00 | 56 | 1014.9 |
| 20260906201051 | 83 | 0 | 0.0 | 0.0 | 0.00 | 0.00 | 0.00 | 53 | 1014.9 |
| 20260906200551 | 83 | 0 | 0.0 | 0.0 | 0.00 | 0.00 | 0.00 | 56 | 1014.8 |
| 20260906200111 | 82 | 0 | 0.0 | 0.0 | 0.00 | 0.00 | 0.00 | 58 | 1014.7 |
| 20260906195550 | 82 | 0 | 0.0 | 0.0 | 0.00 | 0.03 | 0.00 | 58 | 1014.7 |
| 20260906195050 | 83 | 0 | 0.0 | 0.0 | 0.00 | 0.03 | 0.00 | 56 | 1014.7 |
| 20260906194605 | 83 | 0 | 0.0 | 0.0 | 0.00 | 0.03 | 0.00 | 55 | 1014.8 |
| 20260906194051 | 83 | 0 | 0.0 | 0.0 | 0.00 | 0.03 | 0.00 | 58 | 1014.6 |
| 20260906193550 | 83 | 0 | 0.0 | 0.0 | 0.00 | 0.03 | 0.00 | 58 | 1014.6 |
| 20260906193108 | 83 | 0 | 0.0 | 0.0 | 0.00 | 0.03 | 0.00 | 57 | 1014.7 |
| 20260906192551 | 82 | 0 | 0.0 | 0.0 | 0.00 | 0.03 | 0.00 | 62 | 1014.7 |
| 20260906192051 | 82 | 0 | 0.0 | 0.0 | 0.00 | 0.03 | 0.00 | 60 | 1014.7 |
| 20260906191602 | 82 | 0 | 0.0 | 0.0 | 0.00 | 0.03 | 0.00 | 62 | 1014.6 |
| 20260906191052 | 82 | 0 | 0.0 | 0.0 | 0.00 | 0.03 | 0.00 | 63 | 1014.7 |
| 20260906190551 | 82 | 0 | 0.0 | 0.0 | 0.00 | 0.03 | 0.00 | 58 | 1014.8 |
| 20260906190116 | 82 | 0 | 0.0 | 0.0 | 0.00 | 0.03 | 0.00 | 61 | 1015.0 |
| 20260906185550 | 83 | 0 | 0.0 | 0.0 | 0.00 | 0.06 | 0.00 | 60 | 1015.0 |
| 20260906185052 | 82 | 0 | 0.0 | 0.0 | 0.00 | 0.06 | 0.00 | 62 | 1015.1 |
| 20260906184603 | 82 | 0 | 0.0 | 0.0 | 0.00 | 0.06 | 0.00 | 62 | 1015.1 |
| 20260906184053 | 82 | 0 | 0.0 | 0.0 | 0.00 | 0.06 | 0.00 | 63 | 1015.1 |
| 20260906183555 | 82 | 0 | 0.0 | 0.0 | 0.00 | 0.06 | 0.00 | 58 | 1015.1 |
| 20260906183105 | 81 | 0 | 0.0 | 0.0 | 0.00 | 0.06 | 0.00 | 68 | 1015.2 |
| 20260906182548 | 81 | 0 | 0.0 | 0.0 | 0.00 | 0.06 | 0.00 | 60 | 1015.2 |
| 20260906182048 | 82 | 0 | 0.0 | 0.0 | 0.00 | 0.06 | 0.00 | 59 | 1015.2 |
| 20260906181605 | 82 | 0 | 0.0 | 0.0 | 0.00 | 0.06 | 0.00 | 61 | 1015.3 |
| 20260906181050 | 81 | 0 | 0.0 | 0.0 | 0.00 | 0.06 | 0.00 | 64 | 1015.2 |
| 20260906180551 | 81 | 0 | 0.0 | 0.0 | 0.00 | 0.06 | 0.00 | 58 | 1015.3 |
| 20260906180115 | 82 | 0 | 0.0 | 0.0 | 0.00 | 0.06 | 0.00 | 59 | 1015.3 |
| 20260906175550 | 81 | 0 | 0.0 | 0.0 | 0.00 | 0.23 | 0.00 | 61 | 1015.3 |
| 20260906175054 | 82 | 0 | 0.0 | 0.0 | 0.00 | 0.23 | 0.00 | 62 | 1015.3 |
| 20260906174606 | 82 | 0 | 0.0 | 0.0 | 0.00 | 0.23 | 0.00 | 59 | 1015.3 |
| 20260906174047 | 82 | 0 | 0.0 | 0.0 | 0.00 | 0.23 | 0.00 | 60 | 1015.3 |
| 20260906173550 | 81 | 0 | 0.0 | 0.0 | 0.00 | 0.23 | 0.00 | 61 | 1015.4 |
| 20260906173105 | 81 | 0 | 0.0 | 0.0 | 0.00 | 0.23 | 0.00 | 59 | 1015.3 |
| 20260906172554 | 82 | 0 | 0.0 | 0.0 | 0.00 | 0.23 | 0.00 | 66 | 1015.3 |
| 20260906172048 | 81 | 0 | 0.0 | 0.0 | 0.00 | 0.23 | 0.00 | 64 | 1015.5 |
| 20260906171606 | 80 | 0 | 0.0 | 0.0 | 0.00 | 0.23 | 0.00 | 66 | 1015.5 |
| 20260906171050 | 81 | 0 | 0.0 | 0.0 | 0.00 | 0.23 | 0.00 | 60 | 1015.5 |
| 20260906170550 | 81 | 0 | 0.0 | 0.0 | 0.00 | 0.23 | 0.00 | 66 | 1015.4 |
| 20260906170106 | 81 | 0 | 0.0 | 0.0 | 0.00 | 0.23 | 0.00 | 64 | 1015.6 |
| 20260906165551 | 80 | 0 | 0.0 | 0.0 | 0.00 | 0.79 | 0.00 | 64 | 1015.6 |
| 20260906165054 | 80 | 0 | 0.0 | 0.0 | 0.00 | 0.79 | 0.00 | 64 | 1015.6 |
| 20260906164601 | 81 | 0 | 0.0 | 0.0 | 0.00 | 0.79 | 0.00 | 67 | 1015.5 |
| 20260906164048 | 81 | 0 | 0.0 | 0.0 | 0.00 | 0.79 | 0.00 | 63 | 1015.6 |
| 20260906163547 | 80 | 0 | 0.0 | 0.0 | 0.00 | 0.79 | 0.00 | 67 | 1015.7 |
| 20260906163105 | 80 | 0 | 0.0 | 0.0 | 0.00 | 0.79 | 0.00 | 65 | 1015.7 |
| 20260906162551 | 80 | 0 | 0.0 | 0.0 | 0.00 | 0.79 | 0.00 | 62 | 1015.7 |
| 20260906162050 | 80 | 0 | 0.0 | 0.0 | 0.00 | 0.79 | 0.00 | 65 | 1015.7 |
| 20260906161605 | 80 | 0 | 0.0 | 0.0 | 0.00 | 0.79 | 0.00 | 64 | 1015.7 |
| 20260906161051 | 80 | 0 | 0.0 | 0.0 | 0.00 | 0.79 | 0.00 | 63 | 1015.6 |
| 20260906160550 | 80 | 0 | 0.0 | 0.0 | 0.00 | 0.79 | 0.00 | 66 | 1015.7 |
| 20260906160113 | 80 | 0 | 0.0 | 0.0 | 0.00 | 0.79 | 0.00 | 66 | 1015.8 |
| 20260906155552 | 80 | 0 | 0.0 | 0.0 | 0.00 | 0.79 | 0.00 | 67 | 1015.9 |
| 20260906155051 | 80 | 0 | 0.0 | 0.0 | 0.00 | 0.79 | 0.00 | 65 | 1016.0 |
| 20260906154603 | 79 | 0 | 0.0 | 0.0 | 0.00 | 0.79 | 0.00 | 73 | 1016.1 |
| 20260906154051 | 79 | 0 | 0.0 | 0.0 | 0.00 | 0.79 | 0.00 | 70 | 1016.1 |
| 20260906153550 | 79 | 0 | 0.0 | 0.0 | 0.00 | 0.79 | 0.00 | 68 | 1016.2 |
| 20260906153106 | 79 | 0 | 0.0 | 0.0 | 0.00 | 0.79 | 0.00 | 66 | 1016.1 |
| 20260906152551 | 79 | 0 | 0.0 | 0.0 | 0.00 | 0.79 | 0.00 | 64 | 1016.0 |
| 20260906152051 | 78 | 0 | 0.0 | 0.0 | 0.00 | 0.79 | 0.00 | 72 | 1016.1 |
| 20260906151609 | 78 | 0 | 0.0 | 0.0 | 0.00 | 0.79 | 0.00 | 67 | 1015.9 |
| 20260906151054 | 79 | 0 | 0.0 | 0.0 | 0.00 | 0.79 | 0.00 | 72 | 1015.9 |
| 20260906150552 | 79 | 0 | 0.0 | 0.0 | 0.00 | 0.79 | 0.00 | 70 | 1015.9 |
| 20260906150107 | 78 | 0 | 0.0 | 0.0 | 0.00 | 0.79 | 0.00 | 71 | 1015.8 |
| 20260906145551 | 78 | 0 | 0.0 | 0.0 | 0.00 | 0.79 | 0.00 | 74 | 1015.7 |
| 20260906145053 | 78 | 0 | 0.0 | 0.0 | 0.00 | 0.79 | 0.00 | 80 | 1015.7 |
| 20260906144608 | 77 | 0 | 0.0 | 0.0 | 0.00 | 0.79 | 0.00 | 76 | 1015.9 |
| 20260906144050 | 77 | 0 | 0.0 | 0.0 | 0.00 | 0.79 | 0.00 | 78 | 1015.9 |
| 20260906143550 | 77 | 0 | 0.0 | 0.0 | 0.00 | 0.79 | 0.00 | 78 | 1015.8 |
| 20260906143104 | 76 | 0 | 0.0 | 0.0 | 0.00 | 0.79 | 0.00 | 81 | 1015.8 |
| 20260906142550 | 75 | 0 | 0.0 | 0.0 | 0.00 | 0.79 | 0.00 | 82 | 1015.9 |
| 20260906142050 | 75 | 0 | 0.0 | 0.0 | 0.00 | 0.79 | 0.00 | 84 | 1015.8 |
| 20260906141604 | 75 | 0 | 0.0 | 0.0 | 0.00 | 0.79 | 0.00 | 83 | 1015.7 |
| 20260906141051 | 75 | 0 | 0.0 | 0.0 | 0.00 | 0.79 | 0.00 | 83 | 1015.7 |
| 20260906140551 | 75 | 0 | 0.0 | 0.0 | 0.00 | 0.79 | 0.00 | 83 | 1015.7 |
| 20260906140105 | 75 | 0 | 0.0 | 0.0 | 0.00 | 0.79 | 0.00 | 83 | 1015.6 |
| 20260906135551 | 75 | 0 | 0.0 | 0.0 | 0.00 | 0.79 | 0.00 | 85 | 1015.5 |
| 20260906135050 | 75 | 0 | 0.0 | 0.0 | 0.00 | 0.79 | 0.00 | 85 | 1015.5 |
| 20260906134603 | 74 | 0 | 0.0 | 0.0 | 0.00 | 0.79 | 0.00 | 84 | 1015.5 |
| 20260906134052 | 74 | 0 | 0.0 | 0.0 | 0.00 | 0.79 | 0.00 | 86 | 1015.3 |
| 20260906133551 | 74 | 0 | 0.0 | 0.0 | 0.00 | 0.79 | 0.00 | 87 | 1015.3 |
| 20260906133126 | 73 | 0 | 0.0 | 0.0 | 0.00 | 0.79 | 0.00 | 87 | 1015.2 |
| 20260906132552 | 73 | 0 | 0.0 | 0.0 | 0.00 | 0.79 | 0.00 | 87 | 1015.3 |
| 20260906132052 | 72 | 0 | 0.0 | 0.0 | 0.00 | 0.79 | 0.00 | 87 | 1015.3 |
| 20260906131604 | 72 | 0 | 0.0 | 0.0 | 0.00 | 0.79 | 0.00 | 87 | 1015.3 |
| 20260906131050 | 72 | 0 | 0.0 | 0.0 | 0.00 | 0.79 | 0.00 | 89 | 1015.3 |
| 20260906130551 | 72 | 0 | 0.0 | 0.0 | 0.00 | 0.79 | 0.00 | 89 | 1015.4 |
| 20260906130058 | 72 | 0 | 0.0 | 0.0 | 0.00 | 0.79 | 0.00 | 88 | 1015.5 |
| 20260906125551 | 72 | 0 | 0.0 | 0.0 | 0.00 | 0.79 | 0.00 | 89 | 1015.3 |
| 20260906125055 | 72 | 0 | 0.0 | 0.0 | 0.00 | 0.79 | 0.00 | 89 | 1015.3 |
| 20260906124612 | 72 | 0 | 0.0 | 0.0 | 0.00 | 0.79 | 0.00 | 89 | 1015.3 |
| 20260906124050 | 72 | 0 | 0.0 | 0.0 | 0.00 | 0.79 | 0.00 | 90 | 1015.3 |
| 20260906123554 | 72 | 0 | 0.0 | 0.0 | 0.00 | 0.79 | 0.00 | 89 | 1015.2 |
| 20260906123104 | 71 | 0 | 0.0 | 0.0 | 0.00 | 0.79 | 0.00 | 90 | 1015.1 |
| 20260906122552 | 71 | 0 | 0.0 | 0.0 | 0.00 | 0.79 | 0.00 | 90 | 1015.1 |
| 20260906122050 | 71 | 0 | 0.0 | 0.0 | 0.00 | 0.79 | 0.00 | 90 | 1015.1 |
| 20260906121604 | 71 | 0 | 0.0 | 0.0 | 0.00 | 0.79 | 0.00 | 91 | 1015.0 |
| 20260906121051 | 71 | 0 | 0.0 | 0.0 | 0.00 | 0.79 | 0.00 | 91 | 1015.1 |
| 20260906120551 | 71 | 0 | 0.0 | 0.0 | 0.00 | 0.79 | 0.00 | 91 | 1014.9 |
| 20260906115551 | 70 | 0 | 0.0 | 0.0 | 0.00 | 0.79 | 0.00 | 92 | 1014.8 |
| 20260906115050 | 70 | 0 | 0.0 | 0.0 | 0.00 | 0.79 | 0.00 | 92 | 1014.7 |
| 20260906114611 | 70 | 0 | 0.0 | 0.0 | 0.00 | 0.79 | 0.00 | 92 | 1014.6 |
| 20260906114051 | 70 | 0 | 0.0 | 0.0 | 0.00 | 0.79 | 0.00 | 92 | 1014.6 |
| 20260906113550 | 70 | 0 | 0.0 | 0.0 | 0.00 | 0.79 | 0.00 | 92 | 1014.6 |
| 20260906113104 | 70 | 0 | 0.0 | 0.0 | 0.00 | 0.79 | 0.00 | 92 | 1014.6 |
| 20260906112551 | 70 | 0 | 0.0 | 0.0 | 0.00 | 0.79 | 0.00 | 92 | 1014.6 |
| 20260906112051 | 70 | 0 | 0.0 | 0.0 | 0.00 | 0.79 | 0.00 | 92 | 1014.4 |
| 20260906111603 | 70 | 0 | 0.0 | 0.0 | 0.00 | 0.79 | 0.00 | 92 | 1014.3 |
| 20260906111051 | 70 | 0 | 0.0 | 0.0 | 0.00 | 0.79 | 0.00 | 92 | 1014.2 |
| 20260906110551 | 70 | 0 | 0.0 | 0.0 | 0.00 | 0.79 | 0.00 | 92 | 1014.2 |
| 20260906110104 | 70 | 0 | 0.0 | 0.0 | 0.00 | 0.79 | 0.00 | 92 | 1014.2 |
| 20260906105551 | 70 | 0 | 0.0 | 0.0 | 0.00 | 0.79 | 0.00 | 92 | 1014.3 |
| 20260906105055 | 70 | 0 | 0.0 | 0.0 | 0.00 | 0.79 | 0.00 | 92 | 1014.2 |
| 20260906104629 | 71 | 0 | 0.0 | 0.0 | 0.00 | 0.79 | 0.00 | 92 | 1014.0 |
| 20260906104053 | 71 | 0 | 0.0 | 0.0 | 0.00 | 0.79 | 0.00 | 92 | 1013.9 |
| 20260906103551 | 71 | 0 | 0.0 | 0.0 | 0.00 | 0.79 | 0.00 | 92 | 1013.9 |
| 20260906103105 | 71 | 0 | 0.0 | 0.0 | 0.00 | 0.79 | 0.00 | 92 | 1013.8 |
| 20260906102551 | 71 | 0 | 0.0 | 0.0 | 0.00 | 0.79 | 0.00 | 92 | 1013.8 |
| 20260906102051 | 71 | 0 | 0.0 | 0.0 | 0.00 | 0.79 | 0.00 | 92 | 1013.8 |
| 20260906101600 | 71 | 0 | 0.0 | 0.0 | 0.00 | 0.79 | 0.00 | 92 | 1013.7 |
| 20260906101050 | 71 | 0 | 0.0 | 0.0 | 0.00 | 0.79 | 0.00 | 92 | 1013.7 |
| 20260906100550 | 71 | 0 | 0.0 | 0.0 | 0.00 | 0.79 | 0.00 | 92 | 1013.6 |
| 20260906095551 | 71 | 0 | 0.0 | 0.0 | 0.00 | 0.79 | 0.00 | 92 | 1013.5 |
| 20260906095051 | 71 | 0 | 0.0 | 0.0 | 0.00 | 0.79 | 0.00 | 92 | 1013.5 |
| 20260906094601 | 71 | 0 | 0.0 | 0.0 | 0.00 | 0.79 | 0.00 | 93 | 1013.5 |
| 20260906094051 | 71 | 0 | 0.0 | 0.0 | 0.00 | 0.79 | 0.00 | 93 | 1013.5 |
| 20260906093551 | 71 | 0 | 0.0 | 0.0 | 0.00 | 0.79 | 0.00 | 93 | 1013.4 |
| 20260906093121 | 71 | 0 | 0.0 | 0.0 | 0.00 | 0.79 | 0.00 | 93 | 1013.5 |
| 20260906092553 | 71 | 0 | 0.0 | 0.0 | 0.00 | 0.79 | 0.00 | 93 | 1013.3 |
| 20260906092052 | 71 | 0 | 0.0 | 0.0 | 0.00 | 0.79 | 0.00 | 93 | 1013.3 |
| 20260906091610 | 71 | 0 | 0.0 | 0.0 | 0.00 | 0.79 | 0.00 | 93 | 1013.2 |
| 20260906091055 | 71 | 0 | 0.0 | 0.0 | 0.00 | 0.79 | 0.00 | 93 | 1013.3 |
| 20260906090551 | 71 | 0 | 0.0 | 0.0 | 0.00 | 0.79 | 0.00 | 93 | 1013.3 |
| 20260906090104 | 71 | 0 | 0.0 | 0.0 | 0.00 | 0.79 | 0.00 | 93 | 1013.2 |
| 20260906085551 | 71 | 0 | 0.0 | 0.0 | 0.00 | 0.79 | 0.00 | 93 | 1013.2 |
| 20260906085056 | 71 | 0 | 0.0 | 0.0 | 0.00 | 0.79 | 0.00 | 93 | 1013.1 |
| 20260906084601 | 71 | 0 | 0.0 | 0.0 | 0.00 | 0.79 | 0.00 | 93 | 1013.1 |
| 20260906084055 | 71 | 0 | 0.0 | 0.0 | 0.00 | 0.79 | 0.00 | 93 | 1013.1 |
| 20260906083551 | 71 | 0 | 0.0 | 0.0 | 0.00 | 0.79 | 0.00 | 93 | 1013.1 |
| 20260906083103 | 71 | 0 | 0.0 | 0.0 | 0.00 | 0.79 | 0.00 | 93 | 1013.0 |
| 20260906082551 | 71 | 0 | 0.0 | 0.0 | 0.00 | 0.79 | 0.00 | 93 | 1013.1 |
| 20260906082052 | 71 | 0 | 0.0 | 0.0 | 0.00 | 0.79 | 0.00 | 93 | 1013.1 |
| 20260906081601 | 71 | 0 | 0.0 | 0.0 | 0.00 | 0.79 | 0.00 | 94 | 1013.1 |
| 20260906081050 | 71 | 0 | 0.0 | 0.0 | 0.00 | 0.79 | 0.00 | 94 | 1013.0 |
| 20260906080552 | 71 | 0 | 0.0 | 0.0 | 0.00 | 0.79 | 0.00 | 94 | 1013.0 |
| 20260906080109 | 71 | 0 | 0.0 | 0.0 | 0.00 | 0.79 | 0.00 | 94 | 1012.9 |
| 20260906075551 | 71 | 0 | 0.0 | 0.0 | 0.00 | 0.79 | 0.00 | 94 | 1012.8 |
| 20260906075051 | 71 | 0 | 0.0 | 0.0 | 0.00 | 0.79 | 0.00 | 94 | 1012.9 |
| 20260906074604 | 71 | 0 | 0.0 | 0.0 | 0.00 | 0.79 | 0.00 | 94 | 1012.9 |
| 20260906074051 | 71 | 0 | 0.0 | 0.0 | 0.00 | 0.79 | 0.00 | 94 | 1012.8 |
| 20260906073551 | 71 | 0 | 0.0 | 0.0 | 0.00 | 0.79 | 0.00 | 94 | 1012.7 |
| 20260906073101 | 71 | 0 | 0.0 | 0.0 | 0.00 | 0.79 | 0.00 | 94 | 1012.7 |
| 20260906072552 | 71 | 0 | 0.0 | 0.0 | 0.00 | 0.79 | 0.00 | 94 | 1012.8 |
| 20260906072050 | 71 | 0 | 0.0 | 0.0 | 0.00 | 0.79 | 0.00 | 94 | 1012.9 |
| 20260906071603 | 71 | 0 | 0.0 | 0.0 | 0.00 | 0.79 | 0.00 | 94 | 1012.7 |
| 20260906071052 | 71 | 0 | 0.0 | 0.0 | 0.00 | 0.79 | 0.00 | 94 | 1012.7 |
| 20260906070552 | 71 | 0 | 0.0 | 0.0 | 0.00 | 0.79 | 0.00 | 94 | 1012.7 |
| 20260906070112 | 71 | 0 | 0.0 | 0.0 | 0.00 | 0.79 | 0.00 | 94 | 1012.7 |
| 20260906065551 | 71 | 0 | 0.0 | 0.0 | 0.00 | 0.79 | 0.00 | 94 | 1012.7 |
| 20260906065051 | 71 | 0 | 0.0 | 0.0 | 0.00 | 0.79 | 0.00 | 94 | 1012.7 |
| 20260906064603 | 71 | 0 | 0.0 | 0.0 | 0.00 | 0.79 | 0.00 | 94 | 1012.8 |
| 20260906064051 | 71 | 0 | 0.0 | 0.0 | 0.00 | 0.79 | 0.00 | 94 | 1012.8 |
| 20260906063555 | 71 | 0 | 0.0 | 0.0 | 0.00 | 0.79 | 0.00 | 94 | 1012.8 |
| 20260906063105 | 71 | 0 | 0.0 | 0.0 | 0.00 | 0.79 | 0.00 | 94 | 1012.8 |
| 20260906062552 | 71 | 0 | 0.0 | 0.0 | 0.00 | 0.79 | 0.00 | 94 | 1012.8 |
| 20260906062051 | 71 | 0 | 0.0 | 0.0 | 0.00 | 0.79 | 0.00 | 94 | 1012.7 |
| 20260906061608 | 71 | 0 | 0.0 | 0.0 | 0.00 | 0.79 | 0.00 | 94 | 1012.8 |
| 20260906061051 | 71 | 0 | 0.0 | 0.0 | 0.00 | 0.79 | 0.00 | 94 | 1012.8 |
| 20260906060552 | 71 | 0 | 0.0 | 0.0 | 0.00 | 0.79 | 0.00 | 94 | 1012.8 |
| 20260906060103 | 71 | 0 | 0.0 | 0.0 | 0.00 | 0.79 | 0.00 | 94 | 1012.8 |
| 20260906055551 | 71 | 0 | 0.0 | 0.0 | 0.00 | 0.79 | 0.00 | 94 | 1012.9 |
| 20260906055052 | 71 | 0 | 0.0 | 0.0 | 0.00 | 0.79 | 0.00 | 94 | 1012.9 |
| 20260906054612 | 71 | 0 | 0.0 | 0.0 | 0.00 | 0.79 | 0.00 | 94 | 1012.9 |
| 20260906054051 | 71 | 0 | 0.0 | 0.0 | 0.00 | 0.79 | 0.00 | 94 | 1012.9 |
| 20260906053552 | 71 | 0 | 0.0 | 0.0 | 0.00 | 0.79 | 0.00 | 94 | 1012.9 |
| 20260906053104 | 71 | 0 | 0.0 | 0.0 | 0.00 | 0.79 | 0.00 | 94 | 1013.1 |
| 20260906052551 | 71 | 0 | 0.0 | 0.0 | 0.00 | 0.79 | 0.00 | 94 | 1013.1 |
| 20260906052129 | 71 | 0 | 0.0 | 0.0 | 0.00 | 0.79 | 0.00 | 94 | 1013.2 |
| 20260906051557 | 71 | 0 | 0.0 | 0.0 | 0.00 | 0.79 | 0.00 | 94 | 1013.1 |
| 20260906051052 | 71 | 0 | 0.0 | 0.0 | 0.00 | 0.79 | 0.00 | 94 | 1013.1 |
| 20260906050553 | 71 | 0 | 0.0 | 0.0 | 0.00 | 0.79 | 0.00 | 94 | 1013.0 |
| 20260906050124 | 71 | 0 | 0.0 | 0.0 | 0.00 | 0.79 | 0.00 | 94 | 1013.1 |
| 20260906045551 | 71 | 0 | 0.0 | 0.0 | 0.00 | 0.79 | 0.00 | 94 | 1013.0 |
| 20260906045050 | 71 | 0 | 0.0 | 0.0 | 0.00 | 0.79 | 0.00 | 94 | 1013.1 |
| 20260906044602 | 71 | 0 | 0.0 | 0.0 | 0.00 | 0.79 | 0.00 | 94 | 1013.2 |
| 20260906044051 | 71 | 0 | 0.0 | 0.0 | 0.00 | 0.79 | 0.00 | 94 | 1013.2 |
| 20260906043551 | 71 | 0 | 0.0 | 1.0 | 0.00 | 0.79 | 0.00 | 94 | 1013.1 |
| 20260906043100 | 71 | 0 | 0.0 | 1.0 | 0.00 | 0.79 | 0.00 | 94 | 1013.3 |
| 20260906042552 | 71 | 0 | 0.0 | 0.0 | 0.00 | 0.79 | 0.00 | 94 | 1013.4 |
| 20260906042051 | 71 | 0 | 0.0 | 0.0 | 0.00 | 0.79 | 0.00 | 94 | 1013.3 |
| 20260906041605 | 71 | 0 | 0.0 | 0.0 | 0.00 | 0.79 | 0.00 | 94 | 1013.3 |
| 20260906041050 | 71 | 0 | 0.0 | 0.0 | 0.00 | 0.79 | 0.00 | 94 | 1013.2 |
| 20260906040551 | 71 | 0 | 0.0 | 0.0 | 0.00 | 0.79 | 0.00 | 94 | 1013.3 |
| 20260906040136 | 71 | 0 | 0.0 | 0.0 | 0.00 | 0.79 | 0.00 | 94 | 1013.3 |
| 20260906035555 | 71 | 0 | 0.0 | 0.0 | 0.00 | 0.79 | 0.79 | 94 | 1013.2 |
| 20260906035049 | 71 | 0 | 0.0 | 0.0 | 0.00 | 0.79 | 0.79 | 94 | 1013.1 |
| 20260906034603 | 71 | 0 | 0.0 | 0.0 | 0.00 | 0.79 | 0.79 | 94 | 1013.3 |
| 20260906034049 | 72 | 0 | 0.0 | 0.0 | 0.00 | 0.79 | 0.79 | 94 | 1013.3 |
| 20260906033549 | 72 | 0 | 0.0 | 0.0 | 0.00 | 0.79 | 0.79 | 94 | 1013.3 |
| 20260906033111 | 72 | 0 | 0.0 | 0.0 | 0.00 | 0.79 | 0.79 | 94 | 1013.4 |
| 20260906032552 | 72 | 0 | 0.0 | 0.0 | 0.00 | 0.79 | 0.79 | 94 | 1013.4 |
| 20260906032139 | 72 | 0 | 0.0 | 0.0 | 0.00 | 0.79 | 0.79 | 94 | 1013.4 |
| 20260906031605 | 72 | 0 | 0.0 | 0.0 | 0.00 | 0.79 | 0.79 | 94 | 1013.3 |
| 20260906031050 | 72 | 0 | 0.0 | 0.0 | 0.00 | 0.79 | 0.79 | 93 | 1013.4 |
| 20260906030550 | 72 | 0 | 0.0 | 0.0 | 0.00 | 0.79 | 0.79 | 93 | 1013.6 |
| 20260906030106 | 72 | 0 | 0.0 | 0.0 | 0.00 | 0.79 | 0.79 | 93 | 1013.6 |
| 20260906025551 | 72 | 0 | 0.0 | 0.0 | 0.00 | 0.80 | 0.79 | 94 | 1013.7 |
| 20260906025049 | 72 | 0 | 0.0 | 0.0 | 0.00 | 0.80 | 0.79 | 94 | 1013.5 |
| 20260906024618 | 73 | 0 | 0.0 | 0.0 | 0.00 | 0.80 | 0.79 | 94 | 1013.5 |
| 20260906024049 | 73 | 0 | 0.0 | 0.0 | 0.00 | 0.80 | 0.79 | 94 | 1013.5 |
| 20260906023549 | 73 | 0 | 0.0 | 0.0 | 0.00 | 0.80 | 0.79 | 94 | 1013.4 |
| 20260906023105 | 73 | 0 | 0.0 | 0.0 | 0.00 | 0.80 | 0.79 | 93 | 1013.2 |
| 20260906022550 | 73 | 0 | 0.0 | 0.0 | 0.00 | 0.80 | 0.79 | 94 | 1013.3 |
| 20260906022049 | 73 | 0 | 0.0 | 0.0 | 0.00 | 0.80 | 0.79 | 94 | 1013.3 |
| 20260906021605 | 73 | 0 | 0.0 | 0.0 | 0.00 | 0.80 | 0.79 | 94 | 1013.4 |
| 20260906021049 | 73 | 0 | 0.0 | 0.0 | 0.00 | 0.80 | 0.79 | 94 | 1013.4 |
| 20260906020553 | 73 | 0 | 0.0 | 0.0 | 0.00 | 0.80 | 0.79 | 94 | 1013.3 |
| 20260906020108 | 73 | 0 | 0.0 | 0.0 | 0.00 | 0.80 | 0.79 | 94 | 1013.2 |
| 20260906015549 | 73 | 0 | 0.0 | 0.0 | 0.00 | 0.80 | 0.79 | 94 | 1013.3 |
| 20260906015049 | 73 | 0 | 0.0 | 0.0 | 0.00 | 0.80 | 0.79 | 94 | 1013.3 |
| 20260906014610 | 73 | 0 | 0.0 | 0.0 | 0.00 | 0.80 | 0.79 | 94 | 1013.2 |
| 20260906014051 | 73 | 0 | 0.0 | 0.0 | 0.00 | 0.80 | 0.79 | 94 | 1013.2 |
| 20260906013549 | 73 | 0 | 0.0 | 0.0 | 0.00 | 0.80 | 0.79 | 94 | 1013.1 |
| 20260906013104 | 73 | 0 | 0.0 | 0.0 | 0.00 | 0.80 | 0.79 | 94 | 1013.1 |
| 20260906012550 | 74 | 0 | 0.0 | 0.0 | 0.00 | 0.80 | 0.79 | 94 | 1013.0 |
| 20260906012049 | 74 | 0 | 0.0 | 0.0 | 0.00 | 0.80 | 0.79 | 94 | 1013.1 |
| 20260906011605 | 74 | 0 | 0.0 | 0.0 | 0.00 | 0.80 | 0.79 | 94 | 1012.9 |
| 20260906011049 | 74 | 0 | 0.0 | 1.0 | 0.00 | 0.80 | 0.79 | 94 | 1012.8 |
| 20260906010549 | 74 | 0 | 0.0 | 1.0 | 0.00 | 0.80 | 0.79 | 94 | 1012.8 |
| 20260906010108 | 74 | 0 | 0.0 | 1.0 | 0.00 | 0.80 | 0.79 | 94 | 1012.7 |
| 20260906005548 | 74 | 0 | 0.0 | 0.0 | 0.00 | 0.80 | 0.79 | 93 | 1012.9 |
| 20260906005121 | 74 | 0 | 0.0 | 0.0 | 0.00 | 0.80 | 0.79 | 93 | 1012.6 |
| 20260906004600 | 74 | 0 | 0.0 | 0.0 | 0.00 | 0.80 | 0.79 | 93 | 1012.5 |
| 20260906004121 | 74 | 0 | 0.0 | 0.0 | 0.00 | 0.80 | 0.79 | 93 | 1012.5 |
| 20260906003551 | 74 | 0 | 0.0 | 0.0 | 0.00 | 0.80 | 0.79 | 93 | 1012.4 |
| 20260906003110 | 74 | 0 | 0.0 | 0.0 | 0.00 | 0.80 | 0.79 | 93 | 1012.4 |
| 20260906002551 | 74 | 0 | 0.0 | 0.0 | 0.00 | 0.80 | 0.79 | 93 | 1012.2 |
| 20260906002052 | 74 | 0 | 0.0 | 0.0 | 0.00 | 0.80 | 0.79 | 93 | 1012.1 |
| 20260906001608 | 74 | 0 | 0.0 | 0.0 | 0.00 | 0.80 | 0.79 | 93 | 1012.1 |
| 20260906001051 | 74 | 0 | 0.0 | 0.0 | 0.00 | 0.80 | 0.79 | 93 | 1011.7 |
| 20260906000548 | 74 | 0 | 0.0 | 0.0 | 0.00 | 0.80 | 0.79 | 93 | 1011.8 |
| 20260906000107 | 74 | 0 | 0.0 | 1.0 | 0.00 | 0.80 | 0.79 | 93 | 1011.8 |
| 20260905235553 | 74 | 0 | 0.0 | 1.0 | 0.00 | 0.80 | 0.79 | 93 | 1011.7 |
| 20260905235051 | 74 | 0 | 0.0 | 1.0 | 0.00 | 0.80 | 0.79 | 93 | 1011.9 |
| 20260905234614 | 74 | 0 | 0.0 | 2.0 | 0.00 | 0.80 | 0.79 | 93 | 1011.6 |
| 20260905234053 | 74 | 0 | 0.0 | 2.0 | 0.00 | 0.80 | 0.79 | 93 | 1011.6 |
| 20260905233552 | 74 | 301 | 0.0 | 2.0 | 0.00 | 0.80 | 0.79 | 92 | 1011.6 |
| 20260905233105 | 74 | 0 | 0.0 | 0.0 | 0.00 | 0.80 | 0.79 | 92 | 1011.8 |
| 20260905232551 | 74 | 0 | 0.0 | 0.0 | 0.00 | 0.80 | 0.79 | 92 | 1011.7 |
| 20260905232051 | 74 | 0 | 0.0 | 0.0 | 0.00 | 0.80 | 0.79 | 92 | 1011.8 |
| 20260905231605 | 75 | 0 | 0.0 | 0.0 | 0.00 | 0.80 | 0.79 | 92 | 1011.7 |
| 20260905231051 | 75 | 0 | 0.0 | 0.0 | 0.00 | 0.80 | 0.79 | 92 | 1011.8 |
| 20260905230551 | 75 | 0 | 0.0 | 0.0 | 0.00 | 0.80 | 0.79 | 92 | 1011.7 |
| 20260905230129 | 75 | 0 | 0.0 | 0.0 | 0.00 | 0.80 | 0.79 | 92 | 1011.8 |
| 20260905225555 | 75 | 0 | 0.0 | 0.0 | 0.00 | 1.10 | 0.79 | 92 | 1012.0 |
| 20260905225051 | 75 | 0 | 0.0 | 0.0 | 0.00 | 1.10 | 0.79 | 92 | 1011.7 |
| 20260905224559 | 75 | 0 | 0.0 | 0.0 | 0.00 | 1.10 | 0.79 | 92 | 1011.8 |
| 20260905224049 | 75 | 0 | 0.0 | 0.0 | 0.00 | 1.10 | 0.79 | 91 | 1012.0 |
| 20260905223548 | 75 | 0 | 0.0 | 0.0 | 0.00 | 1.10 | 0.79 | 91 | 1011.6 |
| 20260905223109 | 75 | 0 | 0.0 | 0.0 | 0.00 | 1.10 | 0.79 | 91 | 1011.6 |
| 20260905222551 | 75 | 0 | 0.0 | 0.0 | 0.00 | 1.10 | 0.79 | 91 | 1011.7 |
| 20260905222051 | 75 | 0 | 0.0 | 0.0 | 0.00 | 1.10 | 0.79 | 90 | 1011.7 |
| 20260905221606 | 75 | 0 | 0.0 | 0.0 | 0.00 | 1.10 | 0.79 | 91 | 1011.6 |
| 20260905221054 | 75 | 0 | 0.0 | 0.0 | 0.00 | 1.10 | 0.79 | 90 | 1011.6 |
| 20260905220551 | 76 | 0 | 0.0 | 2.0 | 0.00 | 1.10 | 0.79 | 90 | 1011.7 |
| 20260905220111 | 76 | 0 | 0.0 | 2.0 | 0.00 | 1.10 | 0.79 | 90 | 1011.7 |
| 20260905215551 | 76 | 80 | 0.0 | 1.0 | 0.00 | 1.10 | 0.79 | 89 | 1011.9 |
| 20260905215052 | 76 | 0 | 0.0 | 0.0 | 0.00 | 1.10 | 0.79 | 90 | 1011.7 |
| 20260905214606 | 76 | 0 | 0.0 | 0.0 | 0.00 | 1.10 | 0.79 | 90 | 1011.9 |
| 20260905214048 | 76 | 0 | 0.0 | 0.0 | 0.00 | 1.10 | 0.79 | 90 | 1011.8 |
| 20260905213552 | 76 | 0 | 0.0 | 0.0 | 0.00 | 1.10 | 0.79 | 90 | 1011.6 |
| 20260905213110 | 76 | 0 | 0.0 | 0.0 | 0.00 | 1.10 | 0.79 | 90 | 1011.5 |
| 20260905212549 | 76 | 0 | 0.0 | 1.0 | 0.00 | 1.10 | 0.79 | 89 | 1011.6 |
| 20260905212049 | 76 | 0 | 0.0 | 1.0 | 0.00 | 1.10 | 0.79 | 89 | 1011.7 |
| 20260905211606 | 76 | 0 | 0.0 | 1.0 | 0.00 | 1.10 | 0.79 | 89 | 1011.8 |
| 20260905211050 | 76 | 0 | 0.0 | 0.0 | 0.00 | 1.10 | 0.79 | 91 | 1011.9 |
| 20260905210550 | 76 | 0 | 0.0 | 1.0 | 0.00 | 1.10 | 0.79 | 91 | 1012.1 |
| 20260905210105 | 76 | 0 | 0.0 | 1.0 | 0.00 | 1.10 | 0.79 | 92 | 1011.9 |
| 20260905205550 | 75 | 0 | 0.0 | 1.0 | 0.00 | 1.10 | 0.79 | 92 | 1012.0 |
| 20260905205049 | 75 | 0 | 0.0 | 1.0 | 0.00 | 1.10 | 0.79 | 92 | 1012.0 |
| 20260905204602 | 75 | 0 | 0.0 | 1.0 | 0.00 | 1.10 | 0.79 | 92 | 1011.6 |
| 20260905204049 | 75 | 0 | 0.0 | 0.0 | 0.00 | 1.10 | 0.79 | 92 | 1011.7 |